CW1662 Weather Reports


Display with metric or nautical units.
time (UTC)temp
F
wind
direction
speed
MPH
gust
MPH
rain 1hr
in
rain 24hr
in
rain mn
in
humidity
%
barometer
mb
20260901000829 72 138 0.0 2.0 0.00 0.62 0.62 93 1016.5
20260901000335 72 138 0.0 0.0 0.00 0.62 0.62 92 1016.5
20260831235838 72 138 0.0 3.0 0.02 0.62 0.62 92 1016.5
20260831235342 72 138 1.0 3.0 0.16 0.62 0.62 92 1016.4
20260831234846 73 138 0.0 1.0 0.39 0.62 0.62 92 1016.4
20260831234330 72 138 0.0 1.0 0.58 0.62 0.62 92 1016.6
20260831233854 72 138 0.0 1.0 0.62 0.62 0.62 91 1016.6
20260831233358 72 138 0.0 2.0 0.62 0.62 0.62 91 1016.6
20260831232902 72 138 0.0 2.0 0.62 0.62 0.62 90 1016.4
20260831232324 72 138 0.0 2.0 0.62 0.62 0.62 90 1016.5
20260831231849 72 138 1.0 2.0 0.62 0.62 0.62 89 1016.5
20260831231333 73 138 1.0 2.0 0.62 0.62 0.62 88 1016.6
20260831230837 73 138 1.0 5.0 0.62 0.62 0.62 87 1016.5
20260831230326 74 138 2.0 7.0 0.62 0.62 0.62 88 1016.6
20260831225829 74 62 3.0 12.0 0.60 0.60 0.60 88 1016.7
20260831225352 75 69 6.0 18.0 0.48 0.48 0.48 90 1017.6
20260831224839 74 348 11.0 18.0 0.25 0.23 0.25 88 1017.7
20260831224404 76 315 13.0 17.0 0.05 0.05 0.05 81 1017.4
20260831223828 80 333 9.0 17.0 0.00 0.00 0.00 72 1017.3
20260831223332 84 257 4.0 5.0 0.00 0.00 0.00 78 1017.3
20260831222836 84 174 1.0 5.0 0.00 0.00 0.00 77 1016.7
20260831222343 85 207 3.0 6.0 0.00 0.00 0.00 76 1016.7
20260831221828 85 186 1.0 6.0 0.00 0.00 0.00 75 1016.8
20260831221332 85 191 3.0 5.0 0.00 0.00 0.00 76 1016.9
20260831220837 85 208 3.0 4.0 0.00 0.00 0.00 76 1016.9
20260831220324 85 191 2.0 4.0 0.00 0.00 0.00 75 1016.9
20260831215832 85 153 1.0 4.0 0.00 0.00 0.00 76 1017.0
20260831215335 85 118 2.0 4.0 0.00 0.00 0.00 76 1016.9
20260831214840 85 178 2.0 3.0 0.00 0.00 0.00 75 1017.0
20260831214325 85 223 0.0 3.0 0.00 0.00 0.00 75 1016.9
20260831213829 85 224 0.0 2.0 0.00 0.00 0.00 75 1017.1
20260831213334 85 224 1.0 4.0 0.00 0.00 0.00 75 1017.1
20260831212839 86 224 2.0 4.0 0.00 0.00 0.00 73 1017.2
20260831212342 86 200 1.0 4.0 0.00 0.00 0.00 72 1017.2
20260831211826 87 94 1.0 4.0 0.00 0.00 0.00 73 1017.3
20260831211351 86 194 1.0 3.0 0.00 0.00 0.00 75 1017.3
20260831210839 85 194 1.0 5.0 0.00 0.00 0.00 74 1017.3
20260831210322 85 194 2.0 5.0 0.00 0.00 0.00 74 1017.3
20260831205828 85 196 2.0 5.0 0.00 0.00 0.00 74 1017.3
20260831205335 85 196 3.0 5.0 0.00 0.00 0.00 74 1017.2
20260831204840 85 191 3.0 5.0 0.00 0.00 0.00 75 1017.2
20260831204325 85 192 2.0 5.0 0.00 0.00 0.00 76 1017.4
20260831203829 85 180 2.0 3.0 0.00 0.00 0.00 76 1017.4
20260831203354 85 192 1.0 6.0 0.00 0.00 0.00 76 1017.5
20260831202857 84 239 3.0 6.0 0.00 0.00 0.00 76 1017.6
20260831202338 84 200 2.0 3.0 0.00 0.00 0.00 77 1017.6
20260831201846 84 200 2.0 4.0 0.00 0.00 0.00 77 1017.6
20260831201333 84 200 2.0 4.0 0.00 0.00 0.00 77 1017.7
20260831200821 84 200 2.0 3.0 0.00 0.00 0.00 75 1017.7
20260831200329 84 200 1.0 4.0 0.00 0.00 0.00 75 1017.7
20260831195834 84 200 2.0 4.0 0.00 0.00 0.00 74 1017.7
20260831195337 84 200 1.0 3.0 0.00 0.00 0.00 76 1017.7
20260831194901 84 200 1.0 4.0 0.00 0.00 0.00 74 1017.6
20260831194347 85 200 1.0 3.0 0.00 0.12 0.00 75 1017.7
20260831193831 85 200 1.0 2.0 0.00 0.12 0.00 74 1017.8
20260831193334 85 200 0.0 2.0 0.00 0.12 0.00 74 1017.9
20260831192842 85 200 1.0 2.0 0.00 0.12 0.00 74 1017.9
20260831192345 85 200 1.0 2.0 0.00 0.12 0.00 74 1017.9
20260831191829 85 200 0.0 2.0 0.00 0.12 0.00 75 1017.9
20260831191334 85 200 0.0 3.0 0.00 0.12 0.00 74 1017.9
20260831190838 85 200 1.0 3.0 0.00 0.12 0.00 74 1018.0
20260831190326 85 200 1.0 5.0 0.00 0.12 0.00 74 1018.0
20260831185833 85 200 3.0 5.0 0.00 0.12 0.00 72 1018.0
20260831185337 85 194 1.0 2.0 0.00 0.12 0.00 72 1018.0
20260831184842 85 194 1.0 3.0 0.00 0.12 0.00 73 1018.1
20260831184326 85 194 0.0 3.0 0.00 0.12 0.00 73 1018.2
20260831183831 85 194 2.0 4.0 0.00 0.12 0.00 74 1018.1
20260831183335 84 194 2.0 4.0 0.00 0.12 0.00 75 1018.2
20260831182840 84 210 2.0 3.0 0.00 0.12 0.00 74 1018.2
20260831182343 84 210 1.0 3.0 0.00 0.12 0.00 76 1018.3
20260831181828 83 210 1.0 3.0 0.00 0.12 0.00 75 1018.3
20260831181333 83 210 2.0 3.0 0.00 0.12 0.00 75 1018.3
20260831180857 83 210 1.0 3.0 0.00 0.12 0.00 76 1018.3
20260831180323 83 210 1.0 4.0 0.00 0.12 0.00 75 1018.4
20260831175851 84 204 2.0 4.0 0.00 0.12 0.00 73 1018.3
20260831175337 84 198 0.0 2.0 0.00 0.12 0.00 74 1018.4
20260831174841 84 198 0.0 4.0 0.00 0.12 0.00 73 1018.4
20260831174326 84 191 0.0 4.0 0.00 0.12 0.00 71 1018.5
20260831173850 84 247 0.0 2.0 0.00 0.12 0.00 74 1018.5
20260831173334 84 247 1.0 2.0 0.00 0.12 0.00 72 1018.5
20260831172839 84 247 0.0 1.0 0.00 0.12 0.00 73 1018.5
20260831172401 83 247 0.0 2.0 0.00 0.12 0.00 74 1018.5
20260831171847 83 247 1.0 2.0 0.00 0.12 0.00 76 1018.5
20260831171335 83 247 1.0 2.0 0.00 0.12 0.00 75 1018.6
20260831170839 83 247 0.0 2.0 0.00 0.12 0.00 77 1018.6
20260831170344 83 247 1.0 2.0 0.00 0.12 0.00 77 1018.5
20260831165832 82 247 1.0 3.0 0.00 0.12 0.00 76 1018.7
20260831165336 83 247 1.0 3.0 0.00 0.12 0.00 75 1018.7
20260831164840 83 247 0.0 3.0 0.00 0.12 0.00 75 1018.7
20260831164325 83 247 1.0 4.0 0.00 0.12 0.00 75 1018.6
20260831163829 84 253 2.0 4.0 0.00 0.12 0.00 74 1018.7
20260831163336 84 207 1.0 3.0 0.00 0.12 0.00 72 1018.8
20260831162844 84 207 1.0 3.0 0.00 0.12 0.00 72 1018.8
20260831162327 84 207 0.0 1.0 0.00 0.12 0.00 73 1018.9
20260831161832 83 207 0.0 2.0 0.00 0.12 0.00 72 1018.9
20260831161356 83 207 0.0 2.0 0.00 0.12 0.00 73 1018.9
20260831160840 83 207 1.0 2.0 0.00 0.12 0.00 75 1018.9
20260831160327 83 207 0.0 2.0 0.00 0.12 0.00 76 1018.9
20260831155835 83 207 0.0 3.0 0.00 0.12 0.00 74 1018.9
20260831155339 82 207 0.0 3.0 0.00 0.12 0.00 73 1018.8
20260831154843 83 207 0.0 1.0 0.00 0.12 0.00 73 1018.8
20260831154348 82 207 0.0 2.0 0.00 0.12 0.00 74 1019.0
20260831153851 82 207 0.0 2.0 0.00 0.12 0.00 75 1019.0
20260831153334 82 207 0.0 2.0 0.00 0.12 0.00 74 1019.0
20260831152841 82 207 0.0 3.0 0.00 0.12 0.00 73 1019.0
20260831152324 82 207 0.0 2.0 0.00 0.12 0.00 73 1019.0
20260831151831 82 207 0.0 2.0 0.00 0.12 0.00 74 1019.0
20260831151356 82 207 0.0 2.0 0.00 0.12 0.00 73 1019.0
20260831150840 82 207 1.0 3.0 0.00 0.12 0.00 73 1019.2
20260831150343 82 207 0.0 3.0 0.00 0.12 0.00 73 1019.2
20260831145830 82 185 1.0 3.0 0.00 0.12 0.00 72 1019.2
20260831145337 83 355 0.0 1.0 0.00 0.12 0.00 74 1019.2
20260831144842 82 355 0.0 3.0 0.00 0.12 0.00 77 1019.2
20260831144346 81 355 0.0 4.0 0.00 0.12 0.00 78 1019.3
20260831143830 81 355 2.0 4.0 0.00 0.12 0.00 76 1019.3
20260831143335 80 355 1.0 3.0 0.00 0.12 0.00 80 1019.3
20260831142839 80 355 2.0 3.0 0.00 0.12 0.00 81 1019.3
20260831142321 80 355 0.0 2.0 0.00 0.12 0.00 82 1019.2
20260831141828 79 355 0.0 2.0 0.00 0.12 0.00 82 1019.3
20260831141336 79 355 1.0 2.0 0.00 0.12 0.00 84 1019.2
20260831140841 79 355 1.0 2.0 0.00 0.12 0.00 84 1019.1
20260831140325 79 355 0.0 2.0 0.00 0.12 0.00 85 1019.1
20260831135834 78 355 1.0 2.0 0.00 0.12 0.00 85 1019.2
20260831135357 78 355 0.0 2.0 0.00 0.12 0.00 85 1019.2
20260831134904 78 355 1.0 2.0 0.00 0.12 0.00 87 1019.3
20260831134327 78 355 0.0 3.0 0.00 0.12 0.00 87 1019.3
20260831133832 77 355 2.0 3.0 0.00 0.12 0.00 87 1019.4
20260831133339 77 355 0.0 3.0 0.00 0.12 0.00 88 1019.3
20260831132844 77 355 2.0 3.0 0.00 0.12 0.00 88 1019.4
20260831132327 77 355 2.0 3.0 0.00 0.12 0.00 90 1019.4
20260831131832 76 355 2.0 3.0 0.00 0.12 0.00 91 1019.4
20260831131335 76 355 2.0 3.0 0.00 0.12 0.00 91 1019.4
20260831130843 75 355 0.0 2.0 0.00 0.12 0.00 92 1019.4
20260831130328 75 355 1.0 3.0 0.00 0.12 0.00 92 1019.4
20260831125837 75 355 2.0 3.0 0.00 0.12 0.00 92 1019.3
20260831125400 74 355 1.0 5.0 0.00 0.12 0.00 92 1019.2
20260831124903 74 355 2.0 5.0 0.00 0.12 0.00 92 1019.2
20260831124327 74 355 3.0 4.0 0.00 0.12 0.00 92 1019.3
20260831123832 74 355 3.0 4.0 0.00 0.12 0.00 92 1019.2
20260831123336 74 355 2.0 3.0 0.00 0.12 0.00 93 1018.9
20260831122841 74 355 1.0 2.0 0.00 0.12 0.00 93 1019.0
20260831122324 74 355 1.0 2.0 0.00 0.12 0.00 93 1019.0
20260831121829 74 355 1.0 2.0 0.00 0.12 0.00 93 1019.0
20260831121333 74 355 1.0 2.0 0.00 0.12 0.00 93 1019.0
20260831120840 73 355 1.0 3.0 0.00 0.12 0.00 93 1019.0
20260831120328 73 355 2.0 3.0 0.00 0.12 0.00 93 1019.2
20260831115836 73 355 0.0 2.0 0.00 0.12 0.00 93 1019.2
20260831115340 73 355 1.0 2.0 0.00 0.12 0.00 93 1019.2
20260831114824 73 355 2.0 2.0 0.00 0.12 0.00 93 1019.1
20260831114328 73 355 0.0 1.0 0.00 0.12 0.00 93 1019.0
20260831113834 73 355 0.0 1.0 0.00 0.12 0.00 93 1018.9
20260831113342 72 355 0.0 3.0 0.00 0.12 0.00 93 1018.8
20260831112827 72 355 0.0 3.0 0.00 0.12 0.00 93 1018.8
20260831112330 72 355 0.0 0.0 0.00 0.12 0.00 93 1018.7
20260831111835 72 355 0.0 0.0 0.00 0.12 0.00 93 1018.8
20260831111339 72 355 0.0 2.0 0.00 0.12 0.00 93 1018.7
20260831110828 72 355 0.0 1.0 0.00 0.12 0.00 93 1018.8
20260831110352 72 355 1.0 1.0 0.00 0.12 0.00 93 1018.9
20260831105836 72 355 0.0 1.0 0.00 0.12 0.00 93 1018.8
20260831105340 72 355 0.0 1.0 0.00 0.12 0.00 93 1018.8
20260831104824 72 355 0.0 3.0 0.00 0.12 0.00 93 1018.6
20260831104329 72 355 1.0 3.0 0.00 0.12 0.00 93 1018.6
20260831103832 72 355 2.0 2.0 0.00 0.12 0.00 93 1018.5
20260831103339 72 355 1.0 2.0 0.00 0.12 0.00 92 1018.4
20260831102827 72 355 1.0 2.0 0.00 0.12 0.00 93 1018.2
20260831102330 72 355 0.0 0.0 0.00 0.12 0.00 93 1018.0
20260831101835 73 355 0.0 0.0 0.00 0.12 0.00 93 1018.0
20260831101339 73 355 0.0 1.0 0.00 0.12 0.00 93 1018.0
20260831100827 73 355 0.0 1.0 0.00 0.12 0.00 93 1018.0
20260831100334 73 355 0.0 1.0 0.00 0.12 0.00 93 1018.1
20260831095839 73 355 0.0 0.0 0.00 0.12 0.00 93 1018.0
20260831095342 73 355 0.0 0.0 0.00 0.12 0.00 93 1018.0
20260831094827 73 355 0.0 0.0 0.00 0.12 0.00 92 1017.9
20260831094332 73 355 0.0 0.0 0.00 0.12 0.00 92 1017.9
20260831093856 73 355 0.0 1.0 0.00 0.12 0.00 92 1017.9
20260831093340 73 355 0.0 2.0 0.00 0.12 0.00 92 1017.9
20260831092844 73 355 1.0 2.0 0.00 0.12 0.00 92 1017.8
20260831092327 73 355 1.0 2.0 0.00 0.12 0.00 93 1017.7
20260831091835 73 355 0.0 1.0 0.00 0.12 0.00 93 1017.6
20260831091343 73 355 0.0 3.0 0.00 0.12 0.00 93 1017.4
20260831090828 73 355 1.0 3.0 0.00 0.12 0.00 93 1017.5
20260831090331 73 355 1.0 3.0 0.00 0.12 0.00 93 1017.6
20260831085859 73 355 1.0 3.0 0.00 0.12 0.00 92 1017.5
20260831085341 73 355 1.0 3.0 0.00 0.12 0.00 92 1017.5
20260831084826 73 355 1.0 3.0 0.00 0.12 0.00 92 1017.4
20260831084329 73 355 2.0 3.0 0.00 0.12 0.00 92 1017.5
20260831083836 74 355 1.0 2.0 0.00 0.12 0.00 92 1017.5
20260831083343 73 355 0.0 1.0 0.00 0.12 0.00 92 1017.4
20260831082829 73 355 0.0 0.0 0.00 0.12 0.00 92 1017.3
20260831082336 73 355 0.0 1.0 0.00 0.12 0.00 92 1017.4
20260831081900 74 355 0.0 1.0 0.00 0.12 0.00 91 1017.4
20260831081326 74 355 0.0 2.0 0.00 0.12 0.00 91 1017.3
20260831080833 74 355 2.0 2.0 0.00 0.12 0.00 92 1017.4
20260831080341 74 355 0.0 3.0 0.00 0.12 0.00 92 1017.5
20260831075825 74 355 2.0 3.0 0.00 0.12 0.00 92 1017.3
20260831075329 74 355 2.0 3.0 0.00 0.12 0.00 92 1017.3
20260831074834 74 355 1.0 4.0 0.00 0.12 0.00 92 1017.3
20260831074338 74 355 2.0 4.0 0.00 0.12 0.00 92 1017.2
20260831073843 74 355 1.0 4.0 0.00 0.12 0.00 92 1017.3
20260831073327 74 360 2.0 4.0 0.00 0.12 0.00 93 1017.2
20260831072832 74 9 2.0 3.0 0.00 0.12 0.00 93 1017.2
20260831072336 74 170 0.0 3.0 0.00 0.12 0.00 93 1017.3
20260831071824 74 170 1.0 3.0 0.00 0.12 0.00 92 1017.3
20260831071349 74 170 1.0 3.0 0.00 0.12 0.00 91 1017.3
20260831070831 75 170 0.0 1.0 0.00 0.12 0.00 92 1017.2
20260831070339 75 170 0.0 2.0 0.00 0.12 0.00 92 1017.2
20260831065903 75 170 0.0 2.0 0.00 0.12 0.00 92 1017.2
20260831065326 75 170 1.0 1.0 0.00 0.12 0.00 92 1017.2
20260831064831 75 170 0.0 0.0 0.00 0.12 0.00 92 1017.2
20260831064335 75 170 0.0 3.0 0.00 0.12 0.00 91 1017.4
20260831063840 75 170 2.0 3.0 0.00 0.12 0.00 91 1017.4
20260831063324 76 170 0.0 1.0 0.00 0.12 0.00 91 1017.5
20260831062832 76 170 0.0 0.0 0.00 0.12 0.00 91 1017.7
20260831062335 76 170 0.0 0.0 0.00 0.12 0.00 91 1017.7
20260831061824 76 170 0.0 1.0 0.00 0.12 0.00 91 1017.7
20260831061329 76 170 0.0 1.0 0.00 0.12 0.00 91 1017.7
20260831060853 76 170 0.0 1.0 0.00 0.12 0.00 91 1017.7
20260831060335 76 170 0.0 3.0 0.00 0.12 0.00 90 1017.8
20260831055822 76 170 1.0 3.0 0.00 0.12 0.00 90 1017.9
20260831055328 77 170 2.0 2.0 0.00 0.12 0.00 90 1017.9
20260831054836 77 170 0.0 2.0 0.00 0.12 0.00 90 1017.9
20260831054401 76 170 1.0 2.0 0.00 0.12 0.00 90 1017.9
20260831053823 77 170 0.0 2.0 0.00 0.12 0.00 90 1017.9
20260831053331 76 170 0.0 2.0 0.00 0.12 0.00 90 1017.9
20260831052836 76 170 0.0 2.0 0.00 0.12 0.00 90 1017.9
20260831052359 76 170 0.0 4.0 0.00 0.12 0.00 89 1017.9
20260831051827 77 170 2.0 4.0 0.00 0.12 0.00 88 1017.9
20260831051351 77 170 2.0 4.0 0.00 0.12 0.00 87 1017.9
20260831050835 77 170 0.0 2.0 0.00 0.12 0.00 87 1017.7
20260831050340 77 170 0.0 0.0 0.00 0.12 0.00 87 1017.6
20260831045844 77 170 0.0 0.0 0.00 0.12 0.00 87 1017.6
20260831045328 77 170 0.0 0.0 0.00 0.12 0.00 87 1017.5
20260831044832 78 170 0.0 2.0 0.00 0.12 0.00 87 1017.5
20260831044357 78 170 0.0 2.0 0.00 0.12 0.00 87 1017.6
20260831043840 78 170 0.0 1.0 0.00 0.12 0.00 87 1017.6
20260831043343 78 170 0.0 2.0 0.00 0.12 0.00 87 1017.5
20260831042829 78 170 0.0 2.0 0.00 0.12 0.00 87 1017.7
20260831042353 78 170 0.0 0.0 0.00 0.12 0.00 86 1017.6
20260831041857 78 170 0.0 0.0 0.00 0.12 0.00 86 1017.8
20260831041340 78 170 0.0 0.0 0.00 0.12 0.00 86 1017.8
20260831040848 78 170 0.0 0.0 0.00 0.12 0.00 86 1017.8
20260831040331 78 170 0.0 0.0 0.00 0.12 0.00 85 1017.8
20260831035839 78 170 0.0 0.0 0.00 0.12 0.00 85 1017.9
20260831035321 79 170 0.0 1.0 0.00 0.12 0.12 85 1018.1
20260831034828 79 170 0.0 1.0 0.00 0.12 0.12 85 1018.0
20260831034335 78 170 0.0 0.0 0.00 0.12 0.12 85 1018.1
20260831033840 78 170 0.0 0.0 0.00 0.12 0.12 85 1018.2
20260831033325 78 170 0.0 0.0 0.00 0.12 0.12 85 1018.2
20260831032829 79 170 0.0 0.0 0.00 0.12 0.12 85 1018.2
20260831032336 79 170 0.0 0.0 0.00 0.12 0.12 85 1018.1
20260831031840 79 170 0.0 0.0 0.00 0.12 0.12 85 1018.2
20260831031325 79 170 0.0 0.0 0.00 0.12 0.12 85 1018.2
20260831030834 79 170 0.0 0.0 0.00 0.12 0.12 85 1018.2
20260831030337 79 170 0.0 0.0 0.00 0.12 0.12 84 1018.3
20260831025845 79 170 0.0 0.0 0.00 0.12 0.12 84 1018.4
20260831025328 79 170 0.0 1.0 0.00 0.12 0.12 84 1018.4
20260831024833 79 170 0.0 1.0 0.00 0.12 0.12 84 1018.3
20260831024337 80 170 0.0 0.0 0.00 0.12 0.12 83 1018.3
20260831023842 80 170 0.0 0.0 0.00 0.12 0.12 83 1018.1
20260831023327 80 170 0.0 0.0 0.00 0.12 0.12 83 1018.2
20260831022831 80 170 0.0 0.0 0.00 0.12 0.12 83 1018.2
20260831022333 80 170 0.0 0.0 0.00 0.12 0.12 83 1018.0
20260831021825 80 170 0.0 2.0 0.00 0.12 0.12 83 1018.1
20260831021350 80 170 0.0 2.0 0.00 0.12 0.12 82 1018.0
20260831020833 80 170 0.0 1.0 0.00 0.12 0.12 83 1018.3
20260831020338 80 170 0.0 2.0 0.00 0.12 0.12 82 1018.3
20260831015841 80 170 1.0 3.0 0.00 0.12 0.12 82 1018.3
20260831015348 81 170 1.0 4.0 0.00 0.12 0.12 82 1018.2
20260831014832 81 170 1.0 4.0 0.00 0.12 0.12 82 1018.3
20260831014336 81 170 2.0 3.0 0.00 0.12 0.12 82 1018.3
20260831013841 81 170 1.0 2.0 0.00 0.12 0.12 82 1018.2
20260831013325 81 170 0.0 2.0 0.00 0.12 0.12 81 1018.2
20260831012830 81 170 1.0 3.0 0.00 0.12 0.12 81 1018.2
20260831012334 81 170 1.0 3.0 0.00 0.12 0.12 81 1018.0
20260831011858 81 170 0.0 2.0 0.00 0.12 0.12 81 1017.9
20260831011325 81 170 0.0 2.0 0.00 0.12 0.12 81 1017.9
20260831010830 81 170 0.0 0.0 0.00 0.12 0.12 81 1018.0
20260831010335 81 170 0.0 0.0 0.00 0.12 0.12 81 1018.0
20260831005859 81 170 0.0 0.0 0.00 0.12 0.12 81 1017.9
20260831005342 81 170 0.0 0.0 0.00 0.12 0.12 81 1017.8
20260831004827 81 170 0.0 0.0 0.00 0.12 0.12 81 1017.5
20260831004331 81 170 0.0 0.0 0.00 0.12 0.12 81 1017.5
20260831003834 81 170 0.0 0.0 0.00 0.12 0.12 81 1017.4
20260831003342 81 170 0.0 0.0 0.00 0.12 0.12 81 1017.3
20260831002847 81 170 0.0 0.0 0.00 0.12 0.12 81 1017.2
20260831002329 81 170 0.0 0.0 0.00 0.12 0.12 80 1017.2
20260831001834 81 170 0.0 0.0 0.00 0.12 0.12 80 1017.1
20260831001338 82 170 0.0 0.0 0.00 0.12 0.12 80 1017.0